Flight Track Log - Related Links

Times and Time Zones

All times are in EDT time to prevent confusion due to time zone crossing. See the CTL17 flight status page for this flight to view local times or setup timezone preferences in your user account.

Time Position Orientation Groundspeed Altitude Reporting Facility
EDT Latitude Longitude Course Direction KTS MPH feet Rate Location/Type
Mon 07:24:24 PM 41.7881 -82.4742 312° West 190 219 6,000  Level Cleveland Center
Mon 07:25:44 PM 41.8158 -82.5614 293° West 188 216 6,000  Level Cleveland Center
Mon 07:26:38 PM 41.8397 -82.6150 301° West 187 215 6,000  Level Cleveland Center
Mon 07:27:33 PM 41.8811 -82.6386 337° Northwest 171 197 6,000 -310 Level Cleveland Center
Mon 07:28:34 PM 41.9328 -82.6625 341° North 195 224 5,400 -414 Descending Cleveland Center
Mon 07:29:00 PM 42.1656 -82.6513 312° West  Level Estimated
Mon 07:29:29 PM 41.9761 -82.6919 333° Northwest 192 221 5,200  Level Cleveland Center
Mon 07:30:29 PM 42.0211 -82.7297 328° Northwest 189 217 5,000 -104 Descending Cleveland Center
Mon 07:31:24 PM 42.0622 -82.7592 332° Northwest 183 211 5,000  Level Cleveland Center
Mon 07:32:25 PM 42.1075 -82.7886 334° Northwest 180 207 5,000  Level Cleveland Center
Mon 07:33:26 PM 42.1508 -82.8208 331° Northwest 181 208 5,000  Level Cleveland Center
Mon 07:34:39 PM 42.2064 -82.8594 333° Northwest 183 211 5,000  Level Cleveland Center
Mon 07:35:39 PM 42.2536 -82.8864 337° Northwest 179 206 5,000  Level Cleveland Center
Mon 07:36:40 PM 42.2989 -82.9244 328° Northwest 180 207 5,000 -466 Level Cleveland Center
Mon 07:37:35 PM 42.3461 -82.9542 335° Northwest 201 231 4,100 -517 Descending Cleveland Center
Mon 07:38:36 PM 42.3892 -82.9869 331° Northwest 175 201 4,000 -52 Descending Cleveland Center
Mon 07:39:30 PM 42.4261 -83.0108 334° Northwest 167 192 4,000  Level Cleveland Center
Mon 07:40:49 PM 42.4775 -83.0522 329° Northwest 160 184 4,000  Level Cleveland Center
Mon 07:41:50 PM 42.4992 -83.1094 297° West 173 199 4,000  Level Cleveland Center
Mon 07:42:44 PM 42.5167 -83.1636 294° West 175 201 4,000  Level Cleveland Center
Mon 07:43:39 PM 42.5364 -83.2208 295° West 178 205 4,000 -209 Level Cleveland Center
Mon 07:44:39 PM 42.5600 -83.2808 298° West 192 221 3,600 -678 Descending Cleveland Center
Mon 07:45:34 PM 42.5836 -83.3383 299° West 203 234 2,700 -828 Descending Cleveland Center
Mon 07:46:35 PM 42.6111 -83.4017 301° West 183 211 2,000 -448 Descending Cleveland Center
Mon 07:47:48 PM 42.6433 -83.4539 310° West 138 159 1,700 -247 Descending Cleveland Center

Login

Don't have an account? Register now (free) for customized features, flight alerts, and more!